Dewpoint
70 72 72 73 74 77 75 76 76 76 75 75 76 75 75 74 75 75 75 73 73 73 73 73 72 73 73 73 72 70 68 68 65 65 67 69 69 70 71 71 70 71 70
72 77 74 76 75 74 74 73 73 73 73 74 73 73 72 72 73 73 72 71 71 70 71 71 69 70 71 71 72 71 70 70 69 67 68 68 68 69 70 69 68 73 71
75 73 74 74 72 70 70 71 71 70 70 69 70 70 69 69 70 70 71 70 69 68 66 66 66 66 66 66 68 69 70 71 70 69 67 67 66 66 68 68 69 68 71
73 73 73 70 70 68 68 67 68 69 68 67 67 68 67 67 67 67 66 66 66 66 65 65 65 64 63 63 62 64 66 67 68 68 68 67 67 68 66 63 63 64 64
73 70 71 70 68 67 67 66 66 68 69 68 67 66 65 64 62 66 64 63 63 64 64 64 65 64 63 63 61 62 63 62 64 63 62 62 61 60 61 62 61 62 64
71 69 70 68 66 66 66 65 66 68 68 67 66 65 64 61 62 63 65 64 64 63 61 62 63 63 65 63 63 64 63 61 63 62 61 60 59 61 61 59 59 58 57
70 69 68 67 69 69 68 68 66 66 66 65 64 64 63 61 61 61 64 61 61 61 62 61 58 59 62 63 64 63 63 62 62 64 62 60 61 62 62 62 61 61 59
69 69 69 69 68 68 68 67 67 66 65 64 64 64 63 59 59 60 62 63 63 61 60 61 61 60 60 60 63 62 63 62 61 61 62 62 61 62 63 63 61 61 61
69 70 69 69 68 68 67 67 66 66 65 64 64 64 62 61 58 58 61 63 62 61 57 56 57 58 57 57 61 61 62 63 61 61 61 62 61 61 61 61 61 60 59
69 70 70 69 68 67 68 68 68 66 63 60 62 63 60 58 56 55 59 60 61 59 59 58 57 56 55 55 60 58 56 56 61 63 63 62 63 61 62 64 62 60 59
70 70 69 69 68 68 68 68 66 64 64 62 61 61 60 58 57 54 54 56 52 51 51 54 56 55 54 53 54 56 54 54 59 58 56 57 58 60 59 59 61 60 56
70 69 68 68 65 66 67 66 66 66 64 63 60 56 57 61 54 53 53 53 56 55 55 56 56 52 53 53 54 52 52 53 51 53 55 56 56 56 57 58 58 57 57
68 68 68 68 66 66 66 65 64 65 60 61 60 56 54 56 58 53 52 53 52 57 54 52 55 53 54 53 54 55 56 54 54 51 51 49 50 52 58 55 59 60 59
68 68 67 66 65 65 62 62 63 62 60 60 59 56 56 55 56 58 56 54 54 55 52 52 55 53 55 54 55 55 55 53 53 49 51 52 54 52 51 51 52 50 50
67 66 66 64 64 64 56 56 54 51 52 59 56 56 51 50 53 49 48 51 50 49 48 52 57 56 55 54 53 52 53 52 49 50 49 49 50 49 51 53 53 51 51
64 64 63 61 59 57 54 50 48 48 47 46 45 49 51 48 47 46 46 44 44 45 50 53 54 54 52 50 50 50 51 52 52 50 48 48 46 45 44 46 48 46 45
64 64 61 60 57 57 54 49 47 50 49 48 46 46 45 46 45 45 43 43 43 46 53 55 54 53 53 50 49 48 48 50 53 49 48 46 44 46 46 45 45 45 44
64 59 61 61 57 55 54 51 47 47 46 47 46 47 45 46 46 44 42 45 51 48 53 52 53 52 52 51 49 48 48 50 50 49 46 44 45 45 44 44 44 44 44
62 61 60 60 57 55 55 54 50 50 49 47 48 46 46 43 43 43 43 50 52 52 50 52 52 51 51 52 52 52 51 49 50 47 45 44 47 45 44 44 44 44 44
62 60 59 60 59 57 56 54 53 53 52 47 46 44 46 47 46 48 50 53 53 51 52 53 53 54 54 54 53 52 49 49 48 45 46 46 47 46 45 45 44 44 43
61 60 60 59 58 57 56 55 53 52 52 51 48 51 45 48 47 50 50 54 53 51 54 54 55 55 53 51 51 48 46 45 45 45 44 45 46 45 45 44 44 44 43
60 59 59 59 58 59 57 56 55 54 52 50 45 44 41 45 44 45 52 52 52 53 54 56 51 52 49 49 50 46 44 43 41 39 43 45 45 44 45 45 44 44 43
60 59 59 60 59 58 59 58 56 54 52 50 44 41 42 43 44 46 48 50 51 51 53 52 50 49 48 48 46 44 42 38 38 39 39 39 40 42 43 44 44 43 42
58 59 59 59 60 59 59 57 55 46 47 46 46 43 43 44 44 47 47 50 50 50 51 50 50 46 49 47 47 39 37 37 39 37 37 38 37 38 41 42 43 43 41
57 58 60 59 59 60 58 52 49 45 44 44 46 45 43 46 46 45 47 49 49 50 49 49 49 48 48 48 44 40 35 34 38 34 36 37 38 41 42 42 43 41 40
58 57 58 59 58 53 48 46 47 48 47 46 47 47 47 48 47 46 48 48 48 49 48 48 48 48 47 41 39 35 31 32 34 31 33 35 39 42 44 43 43 40 40
Lifted_Index
-6 -7 -7 -7 -7 -7 -6 -6 -5 -4 -4 -4 -4 -3 -3 -3 -3 -3 -3 -2 -3 -3 -3 -2 -2 -2 -2 -3 -3 -3 -2 -2 -2 -2 -2 -2 -2 -3 -3 -3 -3 -3 -2
-7 -7 -7 -7 -7 -6 -5 -5 -4 -3 -3 -2 -2 -2 -2 -2 -2 -2 -2 -1 -2 -2 -2 -2 -1 -1 -2 -2 -2 -2 -2 -2 -2 -2 -2 -2 -2 -2 -3 -3 -3 -2 -2
-7 -7 -7 -7 -6 -5 -4 -3 -2 -1 -0 0 0 1 1 1 0 -0 -0 -0 -0 -0 -0 0 0 0 0 -0 -0 -1 -1 -2 -2 -2 -2 -2 -1 -1 -2 -2 -2 -2 -1
-7 -7 -7 -6 -4 -3 -2 -1 0 1 2 2 2 3 3 3 2 2 1 1 1 1 2 2 2 2 3 2 2 2 1 -0 -1 -1 -1 -1 -1 -1 -1 -1 -1 -1 -1
-6 -6 -5 -3 -2 0 1 2 3 3 3 3 4 4 4 4 3 3 3 3 3 3 3 3 4 4 4 4 4 4 3 2 2 1 1 0 0 -0 -0 -0 -0 -0 0
-4 -3 -2 -0 1 2 3 3 3 3 3 4 5 5 5 5 4 4 4 4 4 4 4 5 5 5 4 4 4 5 5 4 4 3 2 2 1 1 1 1 0 1 1
-1 -0 1 2 2 2 3 3 3 3 4 5 5 6 6 6 5 4 4 4 4 5 5 6 6 6 5 5 4 5 5 5 4 3 3 3 3 3 2 2 1 1 1
0 1 1 2 2 2 2 3 3 4 4 5 5 6 6 6 6 5 5 4 5 6 7 7 7 7 7 6 5 5 4 4 4 3 3 3 3 3 3 2 2 2 2
1 1 1 2 2 2 3 3 3 4 5 5 5 6 6 7 7 6 5 4 5 6 8 9 9 9 9 8 6 5 4 3 3 3 3 3 3 3 3 2 2 2 2
1 1 1 2 2 3 3 3 4 5 6 6 7 7 8 9 9 8 6 6 6 7 9 10 11 11 11 10 8 7 7 5 4 3 3 3 3 3 3 3 3 3 2
1 1 2 2 3 3 3 4 5 6 6 7 8 9 10 11 11 10 9 9 9 9 10 10 11 11 11 11 10 9 8 7 6 5 5 5 4 4 4 4 4 4 4
1 1 2 2 3 3 4 4 5 6 7 7 8 9 10 10 11 11 11 11 10 10 10 10 11 11 11 10 10 9 9 8 7 7 6 6 5 5 5 4 4 3 3
2 2 2 2 3 4 4 5 5 6 7 8 8 9 9 10 10 11 11 11 10 10 10 10 10 10 10 9 8 8 8 7 7 7 7 7 6 5 4 4 3 2 2
1 1 2 3 3 4 5 6 7 8 9 9 9 9 10 10 10 10 11 11 10 10 9 9 9 9 9 8 8 7 7 7 8 8 8 7 6 5 4 3 3 2 2
1 1 2 3 4 5 7 8 9 10 10 10 10 10 11 11 12 12 12 11 10 10 9 9 9 8 8 7 7 8 8 8 8 8 8 7 6 5 4 3 3 3 3
1 1 2 3 5 6 7 9 10 12 12 12 12 12 12 13 14 13 12 11 10 10 9 9 8 8 7 8 8 8 8 8 9 8 8 7 6 5 4 4 3 3 3
1 1 2 3 4 6 7 9 10 12 13 13 13 13 13 13 13 13 11 10 10 9 9 8 8 8 7 8 8 8 9 9 8 8 8 7 6 5 4 4 4 4 4
0 1 1 2 4 5 7 8 9 10 11 12 13 13 13 13 12 11 10 9 9 9 9 8 8 7 7 8 8 9 9 9 8 8 8 7 6 5 4 4 4 4 4
0 1 1 2 3 4 5 6 7 8 9 10 11 12 12 11 10 10 9 8 8 8 8 8 8 7 7 8 8 8 9 9 9 8 7 6 5 5 5 5 5 4 4
-0 0 1 1 2 3 4 5 5 6 7 8 9 10 10 10 10 9 8 8 8 8 8 8 7 7 7 8 8 8 9 9 9 8 7 6 5 5 5 5 5 5 4
-0 0 0 0 1 1 2 3 4 5 6 7 8 9 10 10 10 9 8 7 7 7 7 7 7 7 7 8 8 9 9 9 9 8 7 6 6 5 5 5 5 5 4
-0 0 0 -0 -0 0 1 2 3 4 5 6 7 8 9 9 9 8 7 7 7 7 7 7 7 8 8 8 9 9 9 9 10 10 9 8 7 6 5 5 5 5 5
-1 -0 -0 -1 -1 -0 1 1 2 3 5 6 7 7 8 9 8 8 7 6 7 7 7 7 8 8 8 9 9 10 10 10 11 11 10 9 8 7 6 5 5 5 5
-1 -1 -1 -1 -1 -1 0 1 3 4 5 6 7 7 8 8 8 7 7 6 6 7 7 8 8 8 8 9 9 10 10 10 11 11 11 10 9 8 7 6 5 5 5
-0 -1 -1 -0 -0 -0 0 1 4 6 6 6 7 7 8 8 7 7 7 6 6 7 7 8 8 8 8 8 9 9 10 10 11 11 11 10 9 7 6 6 6 6 6
0 -0 -0 0 1 1 1 2 5 7 7 7 7 7 7 7 7 7 6 6 6 7 7 8 8 8 8 8 9 9 9 10 11 11 11 10 8 7 6 6 6 6 6